View from above orbital plane
|
View from above satellite
|
Ground track
|
The orbit data is extracted from the following two-line orbital elements,
1 15890U 85058B 21055.80290343 .00000106 00000-0 99209-5 0 9992
2 15890 82.5236 78.5155 0022447 93.8970 79.0454 14.83462658903678
Epoch (UTC): | 24 February 2021 19:16:10 |
Eccentricity: | 0.0022447 |
inclination: | 82.5236° |
perigee height: | 603 km |
apogee height: | 634 km |
right ascension of ascending node: | 78.5155° |
argument of perigee: | 93.8970° |
revolutions per day: | 14.83462658 |
mean anomaly at epoch: | 79.0454° |
orbit number at epoch: | 90367 |
The dashed part of the orbit path shows where the satellite is in the earth's shadow,
|
|